World > North America > United States > Georgia

Akin, Georgia Regional Weather

Lat: 32.37N, Lon: 81.67W
Wx Zone: GAZ100Web Search

Ads allow us to feed your daily addiction for the world's greatest weather information. We're determined to offer quality sponsors, in the least annoying way possible.

Feedback


°F Click to change Akin hourly weather to Imperial units.Click to change Akin hourly weather to Metric units. °C
Akin Weather Map
UTC Time: 5/18/2021, 01:02
Your Time:

Akin, GA Regional Weather

Expires:202105180100;;282899
ASUS42 KCHS 180026
RWRCHS

Regional Weather Roundup
National Weather Service Charleston SC
800 PM EDT MON MAY 17 2021

NOTE: "fair" indicates few or no clouds below 12,000 feet with no
significant weather and/or obstructions to visibility.

Not all stations are quality controlled. Use data with caution,
especially dewpoint observations.


GAZ063-065-086>088-099>101-113>116-118-119-134>141-150-180100-
...Southeast Georgia...
  
CITY           SKY/WX    TMP DP  RH WIND       PRES   REMARKS
Savannah Arpt  MOCLDY    73  61  65 E10       30.21R                  
6HR MIN TEMP:  73; 6HR MAX TEMP:  81;                                

Hunter AAF     FAIR      73  62  68 E8        30.18S                  
6HR MIN TEMP:  73; 6HR MAX TEMP:  81;                                

Fort Stewart   FAIR      74  61  63 E7        30.18R                  
6HR MIN TEMP:  74; 6HR MAX TEMP:  82;                                

Statesboro     FAIR      75  50  41 SE5       30.20R                  
Sylvania       FAIR      75  51  43 SE6       30.21R                  
Claxton        FAIR      76  57  51 SE6       30.20R                  
Millen         NOT AVBL                                               
Metter         FAIR      76  54  46 SE6       30.19R                  
Reidsville     FAIR      75  58  54 SE12G18   30.19R                  

...CSRA, Central and far Southeast Georgia...
  
CITY           SKY/WX    TMP DP  RH WIND       PRES   REMARKS
Thomson        MOCLDY    75  55  49 E5        30.20R                  
Augusta-Bush   FAIR      75  57  53 SE6       30.18R                  
6HR MIN TEMP:  75; 6HR MAX TEMP:  84;                                

Augusta-Daniel FAIR      78  52  40 SE7       30.20R                  
Swainsboro     NOT AVBL                                               
Vidalia        NOT AVBL                                               
Eastman        FAIR      76  55  47 SE6       30.17R                  
Hazlehurst     NOT AVBL                                               
Alma           FAIR      75  56  51 E6        30.16S                  
6HR MIN TEMP:  75; 6HR MAX TEMP:  82;                                

Waycross       NOT AVBL                                               
Jesup          FAIR      75  59  57 CALM      30.21S                  
Baxley         FAIR      73  55  53 E6        30.17S                  
Brunswick      FAIR      72  64  76 NE12      30.19S                  
Saint Simons   FAIR      74  68  81 NE13      30.18S                  
6HR MIN TEMP:  74; 6HR MAX TEMP:  82;                                


$$


SKY/WX - Weather  TMP - Temperature  DP - Dew Point  RH - Relative Humidity
WIND - Wind Direction/Speed PRES - Barometric Pressure VSB - Visibility
WCI - Wind Chill Index E13G22 Wind - East Wind 13 mph/Gusts of 22 mph